Time,TemperatureF,DewpointF,PressureIn,WindDirection,WindDirectionDegrees,WindSpeedMPH,WindSpeedGustMPH,Humidity,HourlyPrecipIn,Conditions,Clouds,dailyrainin,SoftwareType,DateUTC
2013-01-27 00:00:00,36.8,29.6,29.37,NE,34,5.0,5.0,75,0.00,,,0.10,Wunderground v.1.15,2013-01-27 07:00:00,
2013-01-27 00:05:00,36.4,29.6,29.37,NNW,345,4.0,5.0,76,0.00,,,0.10,Wunderground v.1.15,2013-01-27 07:05:00,
2013-01-27 00:15:00,36.0,29.5,29.38,NE,49,4.0,6.0,77,0.00,,,0.10,Wunderground v.1.15,2013-01-27 07:15:00,
2013-01-27 00:20:00,35.7,29.5,29.38,ENE,65,4.0,4.0,78,0.00,,,0.10,Wunderground v.1.15,2013-01-27 07:20:00,
2013-01-27 00:30:00,35.3,29.1,29.37,North,360,4.0,6.0,78,0.00,,,0.10,Wunderground v.1.15,2013-01-27 07:30:00,
2013-01-27 00:35:00,35.2,29.3,29.37,NE,35,4.0,6.0,79,0.00,,,0.10,Wunderground v.1.15,2013-01-27 07:35:00,
2013-01-27 00:40:00,35.1,29.2,29.37,North,355,4.0,5.0,79,0.00,,,0.10,Wunderground v.1.15,2013-01-27 07:40:00,
2013-01-27 00:45:00,35.1,29.2,29.38,NE,40,4.0,6.0,79,0.00,,,0.10,Wunderground v.1.15,2013-01-27 07:45:00,
2013-01-27 00:50:00,35.1,29.2,29.38,North,360,4.0,4.0,79,0.00,,,0.10,Wunderground v.1.15,2013-01-27 07:50:00,
2013-01-27 00:55:00,35.1,29.6,29.38,NNE,31,3.0,6.0,80,0.00,,,0.10,Wunderground v.1.15,2013-01-27 07:55:00,
2013-01-27 01:00:00,34.9,29.4,29.38,NNE,29,3.0,3.0,80,0.00,,,0.10,Wunderground v.1.15,2013-01-27 08:00:00,
2013-01-27 01:05:00,35.0,29.1,29.38,NNE,26,3.0,3.0,79,0.00,,,0.00,Wunderground v.1.15,2013-01-27 08:05:00,
2013-01-27 01:10:00,35.1,29.2,29.38,North,351,2.0,4.0,79,0.00,,,0.00,Wunderground v.1.15,2013-01-27 08:10:00,
2013-01-27 01:15:00,35.4,29.2,29.39,NE,34,3.0,4.0,78,0.00,,,0.00,Wunderground v.1.15,2013-01-27 08:15:00,
2013-01-27 01:20:00,35.6,28.8,29.39,NW,326,3.0,4.0,76,0.00,,,0.00,Wunderground v.1.15,2013-01-27 08:20:00,
2013-01-27 01:25:00,35.9,29.1,29.39,NNW,345,3.0,6.0,76,0.00,,,0.00,Wunderground v.1.15,2013-01-27 08:25:00,
2013-01-27 01:30:00,35.8,29.0,29.39,North,5,3.0,3.0,76,0.00,,,0.00,Wunderground v.1.15,2013-01-27 08:30:00,
2013-01-27 01:35:00,35.9,29.1,29.39,SSE,147,2.0,3.0,76,0.00,,,0.00,Wunderground v.1.15,2013-01-27 08:35:00,
2013-01-27 01:40:00,35.9,29.1,29.39,North,11,3.0,3.0,76,0.00,,,0.00,Wunderground v.1.15,2013-01-27 08:40:00,
2013-01-27 01:45:00,35.9,29.1,29.39,WNW,298,3.0,3.0,76,0.00,,,0.00,Wunderground v.1.15,2013-01-27 08:45:00,
2013-01-27 01:50:00,35.9,29.1,29.39,NNW,342,3.0,6.0,76,0.00,,,0.00,Wunderground v.1.15,2013-01-27 08:50:00,
2013-01-27 02:00:00,36.0,29.2,29.39,South,185,3.0,3.0,76,0.00,,,0.00,Wunderground v.1.15,2013-01-27 09:00:00,
2013-01-27 02:05:00,36.0,29.2,29.38,NNW,346,3.0,3.0,76,0.00,,,0.00,Wunderground v.1.15,2013-01-27 09:05:00,
2013-01-27 02:10:00,35.9,29.1,29.39,North,350,3.0,6.0,76,0.00,,,0.00,Wunderground v.1.15,2013-01-27 09:10:00,
2013-01-27 02:20:00,35.9,29.1,29.38,NNW,346,3.0,3.0,76,0.00,,,0.00,Wunderground v.1.15,2013-01-27 09:20:00,
2013-01-27 02:25:00,35.8,29.0,29.38,North,5,3.0,3.0,76,0.00,,,0.00,Wunderground v.1.15,2013-01-27 09:25:00,
2013-01-27 02:30:00,36.1,28.6,29.38,North,355,3.0,3.0,74,0.00,,,0.00,Wunderground v.1.15,2013-01-27 09:30:00,
2013-01-27 02:35:00,36.2,28.7,29.38,NNE,17,2.0,3.0,74,0.00,,,0.00,Wunderground v.1.15,2013-01-27 09:35:00,
2013-01-27 02:40:00,36.2,28.7,29.38,NNW,338,2.0,5.0,74,0.00,,,0.00,Wunderground v.1.15,2013-01-27 09:40:00,
2013-01-27 02:50:00,36.3,28.8,29.39,North,350,3.0,5.0,74,0.00,,,0.00,Wunderground v.1.15,2013-01-27 09:50:00,
2013-01-27 02:55:00,36.1,28.6,29.38,NNW,344,3.0,5.0,74,0.00,,,0.00,Wunderground v.1.15,2013-01-27 09:55:00,
2013-01-27 03:05:00,36.1,28.6,29.38,North,355,2.0,3.0,74,0.00,,,0.00,Wunderground v.1.15,2013-01-27 10:05:00,
2013-01-27 03:10:00,36.3,28.5,29.37,NNE,25,2.0,2.0,73,0.00,,,0.00,Wunderground v.1.15,2013-01-27 10:10:00,
2013-01-27 03:15:00,36.4,28.6,29.38,NNE,17,2.0,2.0,73,0.00,,,0.00,Wunderground v.1.15,2013-01-27 10:15:00,
2013-01-27 03:20:00,36.3,28.5,29.38,SSW,207,1.0,2.0,73,0.00,,,0.00,Wunderground v.1.15,2013-01-27 10:20:00,
2013-01-27 03:25:00,36.4,28.6,29.38,WNW,290,2.0,2.0,73,0.00,,,0.00,Wunderground v.1.15,2013-01-27 10:25:00,
2013-01-27 03:30:00,36.5,28.7,29.38,North,5,2.0,3.0,73,0.00,,,0.00,Wunderground v.1.15,2013-01-27 10:30:00,
2013-01-27 03:35:00,36.2,28.7,29.38,NNW,346,1.0,3.0,74,0.00,,,0.00,Wunderground v.1.15,2013-01-27 10:35:00,
2013-01-27 03:40:00,35.9,29.1,29.39,WSW,241,1.0,1.0,76,0.00,,,0.00,Wunderground v.1.15,2013-01-27 10:40:00,
2013-01-27 03:45:00,35.6,29.1,29.39,NNW,329,1.0,2.0,77,0.00,,,0.00,Wunderground v.1.15,2013-01-27 10:45:00,
2013-01-27 03:55:00,35.2,29.0,29.38,NW,317,1.0,2.0,78,0.00,,,0.00,Wunderground v.1.15,2013-01-27 10:55:00,
2013-01-27 04:00:00,35.2,29.0,29.38,North,350,1.0,1.0,78,0.00,,,0.00,Wunderground v.1.15,2013-01-27 11:00:00,
2013-01-27 04:05:00,35.1,28.9,29.38,WSW,242,1.0,2.0,78,0.00,,,0.00,Wunderground v.1.15,2013-01-27 11:05:00,
2013-01-27 04:10:00,35.1,28.9,29.38,West,280,2.0,2.0,78,0.00,,,0.00,Wunderground v.1.15,2013-01-27 11:10:00,
2013-01-27 04:15:00,35.0,28.8,29.38,North,360,2.0,2.0,78,0.00,,,0.00,Wunderground v.1.15,2013-01-27 11:15:00,
2013-01-27 04:20:00,34.9,28.7,29.38,WNW,303,1.0,3.0,78,0.00,,,0.00,Wunderground v.1.15,2013-01-27 11:20:00,
2013-01-27 04:25:00,34.7,28.5,29.38,North,349,1.0,4.0,78,0.00,,,0.00,Wunderground v.1.15,2013-01-27 11:25:00,
2013-01-27 04:30:00,34.6,28.8,29.38,NE,46,1.0,1.0,79,0.00,,,0.00,Wunderground v.1.15,2013-01-27 11:30:00,
2013-01-27 04:40:00,34.3,28.5,29.38,NNW,347,0.0,2.0,79,0.00,,,0.00,Wunderground v.1.15,2013-01-27 11:40:00,
2013-01-27 04:45:00,34.2,28.4,29.38,NNW,337,1.0,2.0,79,0.00,,,0.00,Wunderground v.1.15,2013-01-27 11:45:00,
2013-01-27 04:50:00,34.0,28.2,29.39,NW,310,1.0,1.0,79,0.00,,,0.00,Wunderground v.1.15,2013-01-27 11:50:00,
2013-01-27 04:55:00,33.9,28.1,29.39,NW,322,1.0,3.0,79,0.00,,,0.00,Wunderground v.1.15,2013-01-27 11:55:00,
2013-01-27 05:05:00,34.9,28.1,29.39,NNW,346,2.0,2.0,76,0.00,,,0.00,Wunderground v.1.15,2013-01-27 12:05:00,
2013-01-27 05:10:00,35.7,28.2,29.38,North,5,3.0,3.0,74,0.00,,,0.00,Wunderground v.1.15,2013-01-27 12:10:00,
2013-01-27 05:15:00,36.1,27.9,29.38,WSW,257,2.0,3.0,72,0.00,,,0.00,Wunderground v.1.15,2013-01-27 12:15:00,
2013-01-27 05:20:00,36.2,28.0,29.39,SSW,198,2.0,2.0,72,0.00,,,0.00,Wunderground v.1.15,2013-01-27 12:20:00,
2013-01-27 05:25:00,36.3,27.8,29.38,WNW,283,2.0,3.0,71,0.00,,,0.00,Wunderground v.1.15,2013-01-27 12:25:00,
2013-01-27 05:30:00,36.4,27.5,29.38,North,360,1.0,2.0,70,0.00,,,0.00,Wunderground v.1.15,2013-01-27 12:30:00,
2013-01-27 05:35:00,36.4,27.5,29.39,WNW,300,1.0,3.0,70,0.00,,,0.00,Wunderground v.1.15,2013-01-27 12:35:00,
2013-01-27 05:40:00,36.4,27.9,29.39,NE,38,2.0,3.0,71,0.00,,,0.00,Wunderground v.1.15,2013-01-27 12:40:00,
2013-01-27 05:45:00,36.3,27.4,29.39,WNW,293,2.0,3.0,70,0.00,,,0.00,Wunderground v.1.15,2013-01-27 12:45:00,
2013-01-27 05:50:00,36.2,27.7,29.39,North,5,2.0,2.0,71,0.00,,,0.00,Wunderground v.1.15,2013-01-27 12:50:00,
2013-01-27 05:55:00,35.9,27.7,29.39,SSE,147,2.0,2.0,72,0.00,,,0.00,Wunderground v.1.15,2013-01-27 12:55:00,
2013-01-27 06:00:00,35.8,27.7,29.39,SE,131,2.0,2.0,72,0.00,,,0.00,Wunderground v.1.15,2013-01-27 13:00:00,
2013-01-27 06:05:00,35.9,27.7,29.40,South,171,2.0,2.0,72,0.00,,,0.00,Wunderground v.1.15,2013-01-27 13:05:00,
2013-01-27 06:10:00,35.8,28.0,29.40,West,267,2.0,2.0,73,0.00,,,0.00,Wunderground v.1.15,2013-01-27 13:10:00,
2013-01-27 06:20:00,35.5,27.7,29.40,SW,236,2.0,2.0,73,0.00,,,0.00,Wunderground v.1.15,2013-01-27 13:20:00,
2013-01-27 06:25:00,35.6,27.8,29.40,ENE,60,1.0,2.0,73,0.00,,,0.00,Wunderground v.1.15,2013-01-27 13:25:00,
2013-01-27 06:30:00,35.6,27.8,29.40,West,268,1.0,2.0,73,0.00,,,0.00,Wunderground v.1.15,2013-01-27 13:30:00,
2013-01-27 06:35:00,35.6,27.8,29.41,North,355,2.0,2.0,73,0.00,,,0.00,Wunderground v.1.15,2013-01-27 13:35:00,
2013-01-27 06:40:00,35.5,27.7,29.41,NW,305,2.0,2.0,73,0.00,,,0.00,Wunderground v.1.15,2013-01-27 13:40:00,
2013-01-27 06:45:00,35.3,27.5,29.40,South,178,2.0,4.0,73,0.00,,,0.00,Wunderground v.1.15,2013-01-27 13:45:00,
2013-01-27 06:50:00,35.2,27.7,29.40,NW,311,2.0,3.0,74,0.00,,,0.00,Wunderground v.1.15,2013-01-27 13:50:00,
2013-01-27 06:55:00,35.2,27.4,29.40,North,349,2.0,3.0,73,0.00,,,0.00,Wunderground v.1.15,2013-01-27 13:55:00,
2013-01-27 07:00:00,35.1,27.6,29.41,SSW,192,1.0,1.0,74,0.00,,,0.00,Wunderground v.1.15,2013-01-27 14:00:00,
2013-01-27 07:05:00,35.0,27.5,29.41,South,188,0.0,2.0,74,0.00,,,0.00,Wunderground v.1.15,2013-01-27 14:05:00,
2013-01-27 07:10:00,35.0,27.5,29.41,SSW,198,1.0,3.0,74,0.00,,,0.00,Wunderground v.1.15,2013-01-27 14:10:00,
2013-01-27 07:20:00,35.1,27.3,29.41,NW,312,2.0,2.0,73,0.00,,,0.00,Wunderground v.1.15,2013-01-27 14:20:00,
2013-01-27 07:25:00,35.2,27.1,29.40,WNW,294,2.0,5.0,72,0.00,,,0.00,Wunderground v.1.15,2013-01-27 14:25:00,
2013-01-27 07:30:00,35.3,27.2,29.40,North,355,1.0,2.0,72,0.00,,,0.00,Wunderground v.1.15,2013-01-27 14:30:00,
2013-01-27 07:35:00,35.2,27.1,29.40,NNW,332,1.0,2.0,72,0.00,,,0.00,Wunderground v.1.15,2013-01-27 14:35:00,
2013-01-27 07:40:00,35.2,27.1,29.40,WNW,296,1.0,1.0,72,0.00,,,0.00,Wunderground v.1.15,2013-01-27 14:40:00,
2013-01-27 07:45:00,35.4,26.9,29.40,NW,304,2.0,5.0,71,0.00,,,0.00,Wunderground v.1.15,2013-01-27 14:45:00,
2013-01-27 07:50:00,35.6,26.8,29.40,NW,317,2.0,2.0,70,0.00,,,0.00,Wunderground v.1.15,2013-01-27 14:50:00,
2013-01-27 07:55:00,35.9,27.1,29.40,West,261,2.0,6.0,70,0.00,,,0.00,Wunderground v.1.15,2013-01-27 14:55:00,
2013-01-27 08:05:00,37.3,27.3,29.41,NNE,17,2.0,2.0,67,0.00,,,0.00,Wunderground v.1.15,2013-01-27 15:05:00,
2013-01-27 08:10:00,37.9,27.2,29.40,West,260,2.0,2.0,65,0.00,,,0.00,Wunderground v.1.15,2013-01-27 15:10:00,
2013-01-27 08:15:00,38.4,27.3,29.40,NNW,346,1.0,5.0,64,0.00,,,0.00,Wunderground v.1.15,2013-01-27 15:15:00,
2013-01-27 08:20:00,38.9,27.0,29.41,NW,311,2.0,2.0,62,0.00,,,0.00,Wunderground v.1.15,2013-01-27 15:20:00,
2013-01-27 08:30:00,39.5,26.8,29.40,NNW,333,4.0,4.0,60,0.00,,,0.00,Wunderground v.1.15,2013-01-27 15:30:00,
2013-01-27 08:35:00,39.9,26.3,29.40,SSE,148,3.0,4.0,58,0.00,,,0.00,Wunderground v.1.15,2013-01-27 15:35:00,
2013-01-27 08:40:00,40.2,27.4,29.41,SW,219,3.0,3.0,60,0.00,,,0.00,Wunderground v.1.15,2013-01-27 15:40:00,
2013-01-27 08:45:00,40.4,26.8,29.40,North,9,3.0,3.0,58,0.00,,,0.00,Wunderground v.1.15,2013-01-27 15:45:00,
2013-01-27 08:50:00,40.6,25.7,29.40,NNE,22,3.0,3.0,55,0.00,,,0.00,Wunderground v.1.15,2013-01-27 15:50:00,
2013-01-27 09:00:00,41.5,26.1,29.41,SSW,193,2.0,3.0,54,0.00,,,0.00,Wunderground v.1.15,2013-01-27 16:00:00,
2013-01-27 09:05:00,42.0,24.2,29.41,SW,229,3.0,3.0,49,0.00,,,0.00,Wunderground v.1.15,2013-01-27 16:05:00,
2013-01-27 09:10:00,42.4,24.6,29.41,South,180,3.0,5.0,49,0.00,,,0.00,Wunderground v.1.15,2013-01-27 16:10:00,
2013-01-27 09:15:00,42.7,24.4,29.41,WSW,242,3.0,5.0,48,0.00,,,0.00,Wunderground v.1.15,2013-01-27 16:15:00,
2013-01-27 09:20:00,42.9,24.0,29.41,ESE,117,2.0,2.0,47,0.00,,,0.00,Wunderground v.1.15,2013-01-27 16:20:00,
2013-01-27 09:25:00,43.6,23.1,29.41,East,81,2.0,2.0,44,0.00,,,0.00,Wunderground v.1.15,2013-01-27 16:25:00,
2013-01-27 09:35:00,43.7,24.2,29.42,NNW,336,3.0,3.0,46,0.00,,,0.00,Wunderground v.1.15,2013-01-27 16:35:00,
2013-01-27 09:45:00,43.5,26.1,29.43,North,355,1.0,2.0,50,0.00,,,0.00,Wunderground v.1.15,2013-01-27 16:45:00,
2013-01-27 09:50:00,42.8,26.4,29.43,North,9,2.0,2.0,52,0.00,,,0.00,Wunderground v.1.15,2013-01-27 16:50:00,
2013-01-27 09:55:00,42.3,26.4,29.43,NNW,341,3.0,3.0,53,0.00,,,0.00,Wunderground v.1.15,2013-01-27 16:55:00,
2013-01-27 10:00:00,42.5,25.6,29.43,WNW,292,2.0,4.0,51,0.00,,,0.00,Wunderground v.1.15,2013-01-27 17:00:00,
2013-01-27 10:05:00,42.5,25.6,29.43,NNW,344,2.0,4.0,51,0.00,,,0.00,Wunderground v.1.15,2013-01-27 17:05:00,
2013-01-27 10:10:00,42.6,25.2,29.43,NNW,327,3.0,3.0,50,0.00,,,0.00,Wunderground v.1.15,2013-01-27 17:10:00,
2013-01-27 10:15:00,42.2,24.9,29.43,North,360,3.0,3.0,50,0.00,,,0.00,Wunderground v.1.15,2013-01-27 17:15:00,
2013-01-27 10:20:00,42.7,24.8,29.43,NNW,336,2.0,8.0,49,0.00,,,0.00,Wunderground v.1.15,2013-01-27 17:20:00,
2013-01-27 10:25:00,43.3,24.4,29.43,NW,323,2.0,8.0,47,0.00,,,0.00,Wunderground v.1.15,2013-01-27 17:25:00,
2013-01-27 10:30:00,43.7,24.2,29.43,NNW,346,2.0,2.0,46,0.00,,,0.00,Wunderground v.1.15,2013-01-27 17:30:00,
2013-01-27 10:40:00,44.1,24.1,29.44,North,355,2.0,2.0,45,0.00,,,0.00,Wunderground v.1.15,2013-01-27 17:40:00,
2013-01-27 10:45:00,43.9,23.9,29.43,NNW,346,3.0,6.0,45,0.00,,,0.00,Wunderground v.1.15,2013-01-27 17:45:00,
2013-01-27 10:50:00,43.8,23.8,29.43,NNE,26,3.0,3.0,45,0.00,,,0.00,Wunderground v.1.15,2013-01-27 17:50:00,
2013-01-27 10:55:00,43.8,24.3,29.44,WNW,297,3.0,4.0,46,0.00,,,0.00,Wunderground v.1.15,2013-01-27 17:55:00,
2013-01-27 11:00:00,43.6,23.1,29.43,NNW,334,3.0,5.0,44,0.00,,,0.00,Wunderground v.1.15,2013-01-27 18:00:00,
2013-01-27 11:05:00,43.6,24.2,29.44,WSW,242,4.0,10.0,46,0.00,,,0.00,Wunderground v.1.15,2013-01-27 18:05:00,
2013-01-27 11:10:00,43.6,23.1,29.43,NNW,331,4.0,4.0,44,0.00,,,0.00,Wunderground v.1.15,2013-01-27 18:10:00,
2013-01-27 11:20:00,43.7,23.7,29.44,NE,36,4.0,4.0,45,0.00,,,0.00,Wunderground v.1.15,2013-01-27 18:20:00,
2013-01-27 11:25:00,44.1,23.6,29.44,WNW,296,2.0,6.0,44,0.00,,,0.00,Wunderground v.1.15,2013-01-27 18:25:00,
2013-01-27 11:30:00,44.2,23.6,29.44,NNW,335,3.0,7.0,44,0.00,,,0.00,Wunderground v.1.15,2013-01-27 18:30:00,
2013-01-27 11:35:00,44.0,23.5,29.44,North,5,5.0,7.0,44,0.00,,,0.00,Wunderground v.1.15,2013-01-27 18:35:00,
2013-01-27 11:40:00,43.8,23.3,29.44,NNW,344,4.0,4.0,44,0.00,,,0.00,Wunderground v.1.15,2013-01-27 18:40:00,
2013-01-27 11:45:00,43.5,23.0,29.44,North,349,4.0,4.0,44,0.00,,,0.00,Wunderground v.1.15,2013-01-27 18:45:00,
2013-01-27 11:50:00,43.7,22.6,29.44,North,350,4.0,4.0,43,0.00,,,0.00,Wunderground v.1.15,2013-01-27 18:50:00,
2013-01-27 11:55:00,44.0,23.5,29.43,North,5,3.0,5.0,44,0.00,,,0.00,Wunderground v.1.15,2013-01-27 18:55:00,
2013-01-27 12:00:00,44.2,22.5,29.43,North,9,4.0,8.0,42,0.00,,,0.00,Wunderground v.1.15,2013-01-27 19:00:00,
2013-01-27 12:05:00,44.2,23.1,29.44,West,262,4.0,8.0,43,0.00,,,0.00,Wunderground v.1.15,2013-01-27 19:05:00,
2013-01-27 12:10:00,44.1,23.0,29.43,NNW,341,4.0,4.0,43,0.00,,,0.00,Wunderground v.1.15,2013-01-27 19:10:00,
2013-01-27 12:15:00,44.2,23.1,29.43,NW,313,2.0,4.0,43,0.00,,,0.00,Wunderground v.1.15,2013-01-27 19:15:00,
2013-01-27 12:20:00,44.6,24.5,29.43,NNW,346,2.0,5.0,45,0.00,,,0.00,Wunderground v.1.15,2013-01-27 19:20:00,
2013-01-27 12:25:00,45.0,23.8,29.43,North,9,2.0,5.0,43,0.00,,,0.00,Wunderground v.1.15,2013-01-27 19:25:00,
2013-01-27 12:30:00,45.2,24.0,29.43,North,355,2.0,2.0,43,0.00,,,0.00,Wunderground v.1.15,2013-01-27 19:30:00,
2013-01-27 12:35:00,45.3,22.4,29.43,NE,53,2.0,2.0,40,0.00,,,0.00,Wunderground v.1.15,2013-01-27 19:35:00,
2013-01-27 12:40:00,45.4,23.0,29.43,WNW,286,3.0,4.0,41,0.00,,,0.00,Wunderground v.1.15,2013-01-27 19:40:00,
2013-01-27 12:50:00,45.6,22.0,29.43,NNE,23,2.0,2.0,39,0.00,,,0.00,Wunderground v.1.15,2013-01-27 19:50:00,
2013-01-27 12:55:00,45.9,22.3,29.43,SE,129,2.0,5.0,39,0.00,,,0.00,Wunderground v.1.15,2013-01-27 19:55:00,
2013-01-27 13:05:00,45.7,21.5,29.42,NE,53,2.0,3.0,38,0.00,,,0.00,Wunderground v.1.15,2013-01-27 20:05:00,
2013-01-27 13:15:00,45.5,21.9,29.41,NW,313,2.0,4.0,39,0.00,,,0.00,Wunderground v.1.15,2013-01-27 20:15:00,
2013-01-27 13:20:00,45.3,21.8,29.42,NNW,331,3.0,4.0,39,0.00,,,0.00,Wunderground v.1.15,2013-01-27 20:20:00,
2013-01-27 13:25:00,45.2,22.3,29.42,West,269,3.0,4.0,40,0.00,,,0.00,Wunderground v.1.15,2013-01-27 20:25:00,
2013-01-27 13:30:00,45.0,22.1,29.42,WNW,284,2.0,4.0,40,0.00,,,0.00,Wunderground v.1.15,2013-01-27 20:30:00,
2013-01-27 13:35:00,45.0,22.7,29.42,North,350,2.0,3.0,41,0.00,,,0.00,Wunderground v.1.15,2013-01-27 20:35:00,
2013-01-27 13:40:00,44.9,22.6,29.42,NW,317,2.0,3.0,41,0.00,,,0.00,Wunderground v.1.15,2013-01-27 20:40:00,
2013-01-27 13:45:00,44.7,23.0,29.42,North,355,2.0,2.0,42,0.00,,,0.00,Wunderground v.1.15,2013-01-27 20:45:00,
2013-01-27 13:50:00,44.2,23.6,29.42,NW,325,2.0,2.0,44,0.00,,,0.00,Wunderground v.1.15,2013-01-27 20:50:00,
2013-01-27 13:55:00,44.0,23.5,29.42,WNW,291,2.0,2.0,44,0.00,,,0.00,Wunderground v.1.15,2013-01-27 20:55:00,
2013-01-27 14:00:00,43.4,22.9,29.42,North,355,2.0,2.0,44,0.00,,,0.00,Wunderground v.1.15,2013-01-27 21:00:00,
2013-01-27 14:10:00,42.7,23.8,29.43,NNW,338,2.0,2.0,47,0.00,,,0.00,Wunderground v.1.15,2013-01-27 21:10:00,
2013-01-27 14:15:00,42.2,23.4,29.43,WNW,298,2.0,2.0,47,0.00,,,0.00,Wunderground v.1.15,2013-01-27 21:15:00,
2013-01-27 15:55:00,39.7,24.0,29.45,NE,44,1.0,2.0,53,0.00,,,0.00,Wunderground v.1.15,2013-01-27 22:55:00,
2013-01-27 16:00:00,39.9,24.6,29.45,SSW,207,1.0,2.0,54,0.00,,,0.00,Wunderground v.1.15,2013-01-27 23:00:00,
2013-01-27 16:05:00,40.1,24.8,29.45,NW,323,1.0,2.0,54,0.00,,,0.00,Wunderground v.1.15,2013-01-27 23:05:00,
2013-01-27 16:10:00,40.1,22.4,29.45,NNW,327,1.0,2.0,49,0.00,,,0.00,Wunderground v.1.15,2013-01-27 23:10:00,
2013-01-27 16:15:00,40.2,24.0,29.46,NNW,331,1.0,2.0,52,0.00,,,0.00,Wunderground v.1.15,2013-01-27 23:15:00,
2013-01-27 16:20:00,40.4,23.7,29.46,East,79,0.0,2.0,51,0.00,,,0.00,Wunderground v.1.15,2013-01-27 23:20:00,
2013-01-27 16:25:00,40.3,23.6,29.46,WNW,289,1.0,2.0,51,0.00,,,0.00,Wunderground v.1.15,2013-01-27 23:25:00,
2013-01-27 16:30:00,40.3,23.1,29.46,ENE,59,1.0,1.0,50,0.00,,,0.00,Wunderground v.1.15,2013-01-27 23:30:00,
2013-01-27 16:35:00,40.3,22.6,29.46,South,173,2.0,2.0,49,0.00,,,0.00,Wunderground v.1.15,2013-01-27 23:35:00,
2013-01-27 16:40:00,40.2,23.0,29.46,South,173,2.0,2.0,50,0.00,,,0.00,Wunderground v.1.15,2013-01-27 23:40:00,
2013-01-27 16:45:00,40.0,23.3,29.46,SSW,197,1.0,2.0,51,0.00,,,0.00,Wunderground v.1.15,2013-01-27 23:45:00,
2013-01-27 16:55:00,39.6,23.4,29.47,SSW,200,1.0,3.0,52,0.00,,,0.00,Wunderground v.1.15,2013-01-27 23:55:00,
2013-01-27 17:00:00,39.3,23.6,29.47,ESE,121,1.0,1.0,53,0.00,,,0.00,Wunderground v.1.15,2013-01-28 00:00:00,
2013-01-27 17:05:00,38.9,24.1,29.47,SSE,155,1.0,2.0,55,0.00,,,0.00,Wunderground v.1.15,2013-01-28 00:05:00,
2013-01-27 17:10:00,38.4,24.5,29.47,NE,42,2.0,3.0,57,0.00,,,0.00,Wunderground v.1.15,2013-01-28 00:10:00,
2013-01-27 17:15:00,38.1,24.2,29.47,SE,141,3.0,3.0,57,0.00,,,0.00,Wunderground v.1.15,2013-01-28 00:15:00,
2013-01-27 17:25:00,37.7,24.6,29.48,ESE,121,3.0,5.0,59,0.00,,,0.00,Wunderground v.1.15,2013-01-28 00:25:00,
2013-01-27 17:30:00,37.5,24.5,29.48,SSE,150,3.0,3.0,59,0.00,,,0.00,Wunderground v.1.15,2013-01-28 00:30:00,
2013-01-27 17:40:00,37.1,24.5,29.48,SSE,155,2.0,2.0,60,0.00,,,0.00,Wunderground v.1.15,2013-01-28 00:40:00,
2013-01-27 17:45:00,37.0,23.6,29.48,SSE,167,2.0,2.0,58,0.00,,,0.00,Wunderground v.1.15,2013-01-28 00:45:00,
2013-01-27 17:50:00,37.0,24.0,29.48,South,173,2.0,6.0,59,0.00,,,0.00,Wunderground v.1.15,2013-01-28 00:50:00,
2013-01-27 17:55:00,36.9,24.3,29.49,South,175,1.0,6.0,60,0.00,,,0.00,Wunderground v.1.15,2013-01-28 00:55:00,
2013-01-27 18:00:00,36.5,24.3,29.49,South,175,0.0,2.0,61,0.00,,,0.00,Wunderground v.1.15,2013-01-28 01:00:00,
2013-01-27 18:05:00,36.2,23.6,29.50,SSE,155,0.0,2.0,60,0.00,,,0.00,Wunderground v.1.15,2013-01-28 01:05:00,
2013-01-27 18:15:00,35.9,23.7,29.50,SW,217,0.0,6.0,61,0.00,,,0.00,Wunderground v.1.15,2013-01-28 01:15:00,
2013-01-27 18:20:00,36.0,23.4,29.49,West,272,0.0,2.0,60,0.00,,,0.00,Wunderground v.1.15,2013-01-28 01:20:00,
2013-01-27 18:25:00,35.9,23.7,29.50,West,270,0.0,2.0,61,0.00,,,0.00,Wunderground v.1.15,2013-01-28 01:25:00,
2013-01-27 18:30:00,35.6,23.9,29.50,West,270,0.0,2.0,62,0.00,,,0.00,Wunderground v.1.15,2013-01-28 01:30:00,
2013-01-27 18:35:00,35.1,23.8,29.50,West,270,0.0,2.0,63,0.00,,,0.00,Wunderground v.1.15,2013-01-28 01:35:00,
2013-01-27 18:40:00,34.6,23.3,29.51,West,270,0.0,2.0,63,0.00,,,0.00,Wunderground v.1.15,2013-01-28 01:40:00,
2013-01-27 18:45:00,34.2,23.3,29.50,South,180,0.0,2.0,64,0.00,,,0.00,Wunderground v.1.15,2013-01-28 01:45:00,
2013-01-27 18:50:00,34.2,23.7,29.50,SSE,162,1.0,1.0,65,0.00,,,0.00,Wunderground v.1.15,2013-01-28 01:50:00,
2013-01-27 18:55:00,34.0,23.1,29.51,SSE,162,0.0,2.0,64,0.00,,,0.00,Wunderground v.1.15,2013-01-28 01:55:00,
2013-01-27 19:00:00,33.5,22.2,29.51,WNW,292,0.0,2.0,63,0.00,,,0.00,Wunderground v.1.15,2013-01-28 02:00:00,
2013-01-27 19:05:00,33.3,21.7,29.51,WNW,290,0.0,2.0,62,0.00,,,0.00,Wunderground v.1.15,2013-01-28 02:05:00,
2013-01-27 19:10:00,33.2,21.6,29.51,WNW,290,0.0,2.0,62,0.00,,,0.00,Wunderground v.1.15,2013-01-28 02:10:00,
2013-01-27 19:20:00,32.7,21.1,29.51,WNW,284,0.0,2.0,62,0.00,,,0.00,Wunderground v.1.15,2013-01-28 02:20:00,
2013-01-27 19:30:00,31.5,20.3,29.51,WNW,285,0.0,2.0,63,0.00,,,0.00,Wunderground v.1.15,2013-01-28 02:30:00,
2013-01-27 19:35:00,31.3,20.5,29.51,SE,140,0.0,2.0,64,0.00,,,0.00,Wunderground v.1.15,2013-01-28 02:35:00,
2013-01-27 19:40:00,31.7,20.2,29.51,West,276,1.0,1.0,62,0.00,,,0.00,Wunderground v.1.15,2013-01-28 02:40:00,
2013-01-27 19:45:00,32.1,20.5,29.51,West,275,1.0,2.0,62,0.00,,,0.00,Wunderground v.1.15,2013-01-28 02:45:00,
2013-01-27 19:50:00,32.2,20.2,29.51,West,275,0.0,2.0,61,0.00,,,0.00,Wunderground v.1.15,2013-01-28 02:50:00,
2013-01-27 19:55:00,31.7,20.2,29.50,West,275,0.0,2.0,62,0.00,,,0.00,Wunderground v.1.15,2013-01-28 02:55:00,
2013-01-27 20:00:00,31.2,20.1,29.50,West,275,0.0,2.0,63,0.00,,,0.00,Wunderground v.1.15,2013-01-28 03:00:00,
2013-01-27 20:05:00,31.0,19.9,29.50,West,270,0.0,2.0,63,0.00,,,0.00,Wunderground v.1.15,2013-01-28 03:05:00,
2013-01-27 20:10:00,30.6,19.9,29.50,West,270,0.0,2.0,64,0.00,,,0.00,Wunderground v.1.15,2013-01-28 03:10:00,
2013-01-27 20:15:00,30.3,19.9,29.49,West,270,0.0,2.0,65,0.00,,,0.00,Wunderground v.1.15,2013-01-28 03:15:00,
2013-01-27 20:20:00,30.0,19.7,29.50,West,270,0.0,2.0,65,0.00,,,0.00,Wunderground v.1.15,2013-01-28 03:20:00,
2013-01-27 20:25:00,29.6,19.6,29.49,West,270,0.0,2.0,66,0.00,,,0.00,Wunderground v.1.15,2013-01-28 03:25:00,
2013-01-27 20:30:00,29.3,19.3,29.50,West,270,0.0,2.0,66,0.00,,,0.00,Wunderground v.1.15,2013-01-28 03:30:00,
2013-01-27 20:35:00,29.6,19.6,29.50,South,180,1.0,2.0,66,0.00,,,0.00,Wunderground v.1.15,2013-01-28 03:35:00,
2013-01-27 20:40:00,30.4,19.7,29.50,South,180,1.0,1.0,64,0.00,,,0.00,Wunderground v.1.15,2013-01-28 03:40:00,
2013-01-27 20:45:00,31.0,19.9,29.49,South,174,0.0,2.0,63,0.00,,,0.00,Wunderground v.1.15,2013-01-28 03:45:00,
2013-01-27 20:50:00,31.2,19.7,29.49,South,174,0.0,2.0,62,0.00,,,0.00,Wunderground v.1.15,2013-01-28 03:50:00,
2013-01-27 20:55:00,30.8,19.7,29.49,South,174,0.0,2.0,63,0.00,,,0.00,Wunderground v.1.15,2013-01-28 03:55:00,
2013-01-27 21:05:00,29.5,19.5,29.49,South,174,0.0,2.0,66,0.00,,,0.00,Wunderground v.1.15,2013-01-28 04:05:00,
2013-01-27 21:10:00,28.5,18.9,29.49,South,174,0.0,2.0,67,0.00,,,0.00,Wunderground v.1.15,2013-01-28 04:10:00,
2013-01-27 21:15:00,28.1,19.2,29.49,South,174,0.0,2.0,69,0.00,,,0.00,Wunderground v.1.15,2013-01-28 04:15:00,
2013-01-27 21:25:00,29.3,19.0,29.49,NW,309,0.0,2.0,65,0.00,,,0.00,Wunderground v.1.15,2013-01-28 04:25:00,
2013-01-27 21:30:00,30.4,18.9,29.50,NW,310,0.0,2.0,62,0.00,,,0.00,Wunderground v.1.15,2013-01-28 04:30:00,
2013-01-27 21:35:00,30.9,19.0,29.50,NW,309,0.0,2.0,61,0.00,,,0.00,Wunderground v.1.15,2013-01-28 04:35:00,
2013-01-27 21:40:00,31.0,18.7,29.49,NW,309,0.0,2.0,60,0.00,,,0.00,Wunderground v.1.15,2013-01-28 04:40:00,
2013-01-27 21:45:00,30.7,18.4,29.49,NW,309,0.0,2.0,60,0.00,,,0.00,Wunderground v.1.15,2013-01-28 04:45:00,
2013-01-27 21:50:00,30.4,18.9,29.48,NW,309,0.0,2.0,62,0.00,,,0.00,Wunderground v.1.15,2013-01-28 04:50:00,
2013-01-27 21:55:00,30.3,18.1,29.49,NW,309,0.0,2.0,60,0.00,,,0.00,Wunderground v.1.15,2013-01-28 04:55:00,
2013-01-27 22:00:00,31.2,17.7,29.48,ENE,58,1.0,1.0,57,0.00,,,0.00,Wunderground v.1.15,2013-01-28 05:00:00,
2013-01-27 22:05:00,31.9,18.0,29.48,East,82,1.0,2.0,56,0.00,,,0.00,Wunderground v.1.15,2013-01-28 05:05:00,
2013-01-27 22:10:00,32.1,18.2,29.48,NW,318,0.0,2.0,56,0.00,,,0.00,Wunderground v.1.15,2013-01-28 05:10:00,
2013-01-27 22:15:00,32.0,18.1,29.48,NW,318,0.0,2.0,56,0.00,,,0.00,Wunderground v.1.15,2013-01-28 05:15:00,
2013-01-27 22:20:00,31.8,18.3,29.48,SSE,159,0.0,2.0,57,0.00,,,0.00,Wunderground v.1.15,2013-01-28 05:20:00,
2013-01-27 22:25:00,31.8,17.9,29.47,SSE,150,1.0,2.0,56,0.00,,,0.00,Wunderground v.1.15,2013-01-28 05:25:00,
2013-01-27 22:30:00,31.6,17.7,29.46,SSE,150,0.0,2.0,56,0.00,,,0.00,Wunderground v.1.15,2013-01-28 05:30:00,
2013-01-27 22:35:00,31.0,17.5,29.47,SSE,150,0.0,2.0,57,0.00,,,0.00,Wunderground v.1.15,2013-01-28 05:35:00,
2013-01-27 22:40:00,30.2,18.0,29.47,NNW,345,0.0,2.0,60,0.00,,,0.00,Wunderground v.1.15,2013-01-28 05:40:00,
2013-01-27 22:45:00,29.8,18.0,29.48,NNW,345,0.0,2.0,61,0.00,,,0.00,Wunderground v.1.15,2013-01-28 05:45:00,
2013-01-27 22:50:00,29.7,18.6,29.48,SSW,206,0.0,2.0,63,0.00,,,0.00,Wunderground v.1.15,2013-01-28 05:50:00,
2013-01-27 22:55:00,29.5,18.1,29.49,NW,309,1.0,2.0,62,0.00,,,0.00,Wunderground v.1.15,2013-01-28 05:55:00,
2013-01-27 23:00:00,30.2,19.1,29.48,North,5,1.0,1.0,63,0.00,,,0.00,Wunderground v.1.15,2013-01-28 06:00:00,
2013-01-27 23:05:00,31.6,19.3,29.47,NNW,348,1.0,2.0,60,0.00,,,0.00,Wunderground v.1.15,2013-01-28 06:05:00,
2013-01-27 23:15:00,32.8,19.2,29.47,SW,220,0.0,2.0,57,0.00,,,0.00,Wunderground v.1.15,2013-01-28 06:15:00,
2013-01-27 23:20:00,32.5,18.9,29.48,SW,220,0.0,2.0,57,0.00,,,0.00,Wunderground v.1.15,2013-01-28 06:20:00,
2013-01-27 23:25:00,31.9,20.0,29.48,SW,220,0.0,3.0,61,0.00,,,0.00,Wunderground v.1.15,2013-01-28 06:25:00,
2013-01-27 23:30:00,31.3,19.0,29.48,SW,220,0.0,3.0,60,0.00,,,0.00,Wunderground v.1.15,2013-01-28 06:30:00,
2013-01-27 23:35:00,30.9,19.4,29.48,SW,220,0.0,2.0,62,0.00,,,0.00,Wunderground v.1.15,2013-01-28 06:35:00,
2013-01-27 23:45:00,31.0,20.2,29.49,NNW,348,0.0,4.0,64,0.00,,,0.00,Wunderground v.1.15,2013-01-28 06:45:00,
2013-01-27 23:50:00,31.6,20.4,29.48,North,355,1.0,4.0,63,0.00,,,0.00,Wunderground v.1.15,2013-01-28 06:50:00,
2013-01-27 23:55:00,32.3,21.1,29.48,NNE,23,1.0,1.0,63,0.00,,,0.00,Wunderground v.1.15,2013-01-28 06:55:00,